Regional Weather Roundup
Issued by NWS Sterling, VA

Home | Current Version | Previous Version | Text Only | Print | Product List | Glossary Off
Versions: 1 2 3 4 5 6 7 8 9 10 11 12 13 14 15 16 17 18 19 20 21 22 23 24 25 26 27

000
ASUS41 KLWX 161110
RWRLWX

REGIONAL WEATHER ROUNDUP
NATIONAL WEATHER SERVICE BALTIMORE MD/WASHINGTON DC
700 AM EDT WED APR 16 2014

Note: "FAIR" indicates few or no clouds below 12,000 feet
with no significant weather and/or obstructions to visibility.
 TC=TEMPERATURE CELSIUS

 * =Non NWS site. Station does not report precipitation (e.g. rain,
    snow, etc.), thunder, or fog.

DCZ001-MDZ009-015-VAZ040>042-051-053>054-161200-
WASHINGTON METRO

CITY           SKY/WX    TMP DP  RH WIND       PRES   REMARKS
WASHINGTON NAT CLEAR     34  14  43 NW17      30.31R WCI  23
DULLES         CLEAR     30  14  51 N14G21    30.31R WCI  19
ANDREWS AFB    CLEAR     31  15  49 NW15      30.29R WCI  21
FT BELVOIR     CLEAR     33  13  44 NW13G23   30.32R WCI  24
QUANTICO       CLEAR     33  16  49 N14G23    30.33R WCI  23
COLLEGE PARK*  CLEAR     32  16  51 N10       30.30R WCI  24
LEESBURG*      CLEAR     32  19  59 N9G16     30.33R WCI  24
MANASSAS*      CLEAR     32  19  59 N12G20    30.32R WCI  23
GAITHERSBURG*  CLEAR     28  12  50 NW7G20    30.32R

$$

MDZ006>007-011-014-161200-
BALTIMORE METRO

CITY           SKY/WX    TMP DP  RH WIND       PRES   REMARKS
BWI AIRPORT    PTCLDY    31  14  49 NW10G16   30.28R WCI  22
MD SCIENCE CTR   N/A     33  13  43 MISG      30.28R
MARTIN STATE   CLEAR     34  16  47 NW8       30.30R WCI  27
ANNAPOLIS      CLEAR     35  22  58 NW15      30.29R WCI  25
FORT MEADE*    CLEAR     32  18  55 NW7       30.32R

$$

MDZ012-015-019>023-161200-
MARYLAND EASTERN SHORE

CITY           SKY/WX    TMP DP  RH WIND       PRES   REMARKS
OCEAN CITY     CLEAR     34  24  67 N13G24    30.23R WCI  25
SALISBURY      CLEAR     35  19  52 N14       30.25R WCI  26
BAY BRIDGE AP* CLEAR     34  14  44 N18G26    30.29R WCI  23
CAMBRIDGE*     CLEAR     36  21  55 N14G24    30.27R WCI  27
EASTON*        CLEAR     36  21  55 N10G20    30.30R WCI  28

$$

MDZ017>025-161200-
SOUTHERN MARYLAND

CITY           SKY/WX    TMP DP  RH WIND       PRES   REMARKS
PATUXENT RIVER PTCLDY    33  16  49 NW21G29   30.29R WCI  21
ST INIGOES     CLEAR     34  16  47 MISG      30.28R
LEONARDTOWN*   CLEAR     32  18  55 N6        30.30R

$$

MDZ003>005-161200-
NORTH CENTRAL MARYLAND

CITY           SKY/WX    TMP DP  RH WIND       PRES   REMARKS
FREDERICK*     CLEAR     30  18  59 N13       30.33R WCI  20
HAGERSTOWN APT CLEAR     27  14  58 NW10      30.32R WCI  17
WESTMINSTER*     N/A     28  12  50 NW7       30.27R

$$

MDZ501>502-161200-
WESTERN MARYLAND

CITY           SKY/WX    TMP DP  RH WIND       PRES   REMARKS
OAKLAND*       CLOUDY    19  19 100 N9        30.21R FOG     WCI   9
CUMBERLAND*    PTCLDY    30  14  51 N12       30.38R WCI  21

$$

VAZ025>031-161200-
SHENANDOAH VALLEY

CITY           SKY/WX    TMP DP  RH WIND       PRES   REMARKS
WINCHESTER*    CLEAR     30  18  59 NW9       30.32R WCI  22
STAUNTON*      CLEAR     28  15  59 N5        30.31R

$$

WVZ021-048>050-054>055-161200-
EASTERN WEST VIRGINIA PANHANDLE

CITY           SKY/WX    TMP DP  RH WIND       PRES   REMARKS
MARTINSBURG    CLEAR     30  10  43 NW14      30.34R WCI  19
PETERSBURG*    PTCLDY    33  22  63 NW5       30.34R

$$

VAZ036>039-050-161200-
CENTRAL FOOTHILLS

CITY           SKY/WX    TMP DP  RH WIND       PRES   REMARKS
CHARLOTTESVILL CLEAR     31  16  54 N8        30.29R WCI  23
CULPEPER*      CLEAR     34  16  47 NW10G16   30.32R WCI  26

$$

VAZ055>057-161200-
NORTH AND CENTRAL PIEDMONT

CITY           SKY/WX    TMP DP  RH WIND       PRES   REMARKS
FREDERICKSBRG* CLEAR     34  19  55 N7G18     30.31R
STAFFORD*      CLEAR     32  20  60 N9        30.36R WCI  24

$$

NCZ024-NYZ072-PAZ021-071-VAZ022-071-161200-
OTHER REGIONAL OBSERVATIONS

CITY           SKY/WX    TMP DP  RH WIND       PRES   REMARKS
NEW YORK CITY  MOCLDY    32  16  51 VRB5G18   30.24R
PHILADELPHIA   PTCLDY    31  12  45 N12       30.27R WCI  22
PITTSBURGH     PTCLDY    25  16  68 N5        30.35R
ROANOKE        PTCLDY    28  16  60 NW10      30.31R WCI  19
RICHMOND       CLEAR     33  17  51 N12       30.29R WCI  24
RALEIGH        PTCLDY    33  21  61 VRB5      30.28R

$$

ANZ530>537-161200-
MARINE OBSERVATIONS

STATION/POSITION TIME  TEMP    WIND        PRES
                       AIR SEA DIR/SP/G
                 (UTC) (F)     (DEG/KT/KT) (MB)
THOMAS PT LIGHT  1100   34 50  330/ 18/ 20 1026.0R
BALT KEY BRIDGE  1100   33     330/ 15/ 18 1025.8R
COVE POINT       1100   35      10/ 20/ 28 1024.8R
LEWISETTA        1100   35 52  350/ 12/ 18 1025.5R
SOLOMONS ISLAND  1100      53                N/A
PINEY POINT      1100          360/ 15/ 18   N/A

$$




USA.gov is the U.S. government's official web portal to all federal, state and local government web resources and services.